PAS223 WALL-WAPP

Flight info

Callsign PAS223
Flight time 1h 53m
Altitude 35000
Route KALKU DCT BELBA
Aircraft A320/M-SDE3FGHIRWY/LB1

Departure

Time 2026-05-06 16:09
Airport Sultan Aji Muhammad Sulaiman Sepinggan International Airport (WALL)

Arrival

Time 2026-05-06 18:03
Airport Pattimura International Airport (WAPP)
Time Latitude Longitude Altitude Speed Heading
2026-05-06 15:47 -1.26298 116.89886 21 ft 0 kts 336°
2026-05-06 15:57 -1.26318 116.89895 21 ft 4 kts 336°
2026-05-06 15:58 -1.26334 116.89902 24 ft 4 kts 341°
2026-05-06 15:58 -1.26365 116.89904 23 ft 4 kts 35°
2026-05-06 15:58 -1.26377 116.89890 23 ft 1 kts 68°
2026-05-06 15:58 -1.26378 116.89887 22 ft 0 kts 68°
2026-05-06 16:02 -1.26367 116.89912 21 ft 6 kts 68°
2026-05-06 16:03 -1.26344 116.89969 23 ft 11 kts 68°
2026-05-06 16:03 -1.26311 116.90050 21 ft 15 kts 67°
2026-05-06 16:03 -1.26263 116.90164 21 ft 20 kts 67°
2026-05-06 16:03 -1.26225 116.90253 23 ft 9 kts 67°
2026-05-06 16:04 -1.26203 116.90309 21 ft 8 kts 77°
2026-05-06 16:04 -1.26219 116.90351 23 ft 6 kts 123°
2026-05-06 16:04 -1.26238 116.90381 21 ft 4 kts 123°
2026-05-06 16:04 -1.26251 116.90401 21 ft 3 kts 123°
2026-05-06 16:05 -1.26260 116.90414 21 ft 2 kts 123°
2026-05-06 16:05 -1.26263 116.90419 21 ft 0 kts 123°
2026-05-06 16:06 -1.26279 116.90442 21 ft 4 kts 125°
2026-05-06 16:06 -1.26292 116.90457 21 ft 2 kts 136°
2026-05-06 16:06 -1.26302 116.90464 22 ft 0 kts 146°
2026-05-06 16:07 -1.26319 116.90475 22 ft 7 kts 150°
2026-05-06 16:08 -1.26371 116.90475 22 ft 10 kts 206°
2026-05-06 16:08 -1.26420 116.90430 22 ft 9 kts 234°
2026-05-06 16:08 -1.26433 116.90402 22 ft 0 kts 247°
2026-05-06 16:08 -1.26468 116.90319 23 ft 45 kts 247°
2026-05-06 16:09 -1.26690 116.89795 22 ft 115 kts 247°
2026-05-06 16:09 -1.27075 116.88879 35 ft 167 kts 247°
2026-05-06 16:09 -1.27512 116.87838 681 ft 164 kts 247°
2026-05-06 16:09 -1.27954 116.86794 1398 ft 162 kts 246°
2026-05-06 16:10 -1.28400 116.85739 1987 ft 171 kts 246°
2026-05-06 16:10 -1.28894 116.84575 2260 ft 192 kts 245°
2026-05-06 16:10 -1.29449 116.83267 2497 ft 217 kts 246°
2026-05-06 16:10 -1.30069 116.81803 2821 ft 241 kts 246°
2026-05-06 16:11 -1.30751 116.80192 3312 ft 258 kts 246°
2026-05-06 16:11 -1.31450 116.78537 4031 ft 264 kts 246°
2026-05-06 16:11 -1.32169 116.76829 4795 ft 269 kts 246°
2026-05-06 16:11 -1.32901 116.75093 5560 ft 273 kts 245°
2026-05-06 16:12 -1.33946 116.73484 5905 ft 274 kts 219°
2026-05-06 16:12 -1.35622 116.72701 6034 ft 274 kts 184°
2026-05-06 16:12 -1.37506 116.72968 6713 ft 276 kts 161°
2026-05-06 16:12 -1.39288 116.73717 7455 ft 279 kts 153°
2026-05-06 16:13 -1.41016 116.74615 8201 ft 282 kts 152°
2026-05-06 16:13 -1.42762 116.75537 8935 ft 285 kts 152°
2026-05-06 16:13 -1.44545 116.76430 9661 ft 289 kts 153°
2026-05-06 16:13 -1.46386 116.77297 10236 ft 296 kts 155°
2026-05-06 16:14 -1.48338 116.78174 10415 ft 319 kts 155°
2026-05-06 16:14 -1.50412 116.79167 10531 ft 341 kts 147°
2026-05-06 16:14 -1.52208 116.80803 10755 ft 357 kts 126°
2026-05-06 16:14 -1.53304 116.83044 11237 ft 364 kts 105°
2026-05-06 16:15 -1.53502 116.85566 11788 ft 368 kts 83°
2026-05-06 16:15 -1.52787 116.88000 12335 ft 373 kts 68°
2026-05-06 16:15 -1.51770 116.90398 12925 ft 376 kts 67°
2026-05-06 16:15 -1.50732 116.92816 13506 ft 379 kts 67°
2026-05-06 16:16 -1.49690 116.95252 14009 ft 382 kts 67°
2026-05-06 16:16 -1.48648 116.97702 14516 ft 385 kts 67°
2026-05-06 16:16 -1.47600 117.00172 15003 ft 388 kts 68°
2026-05-06 16:16 -1.46747 117.02740 15488 ft 390 kts 77°
2026-05-06 16:17 -1.46394 117.05432 15950 ft 393 kts 88°
2026-05-06 16:17 -1.46296 117.08173 16434 ft 396 kts 88°
2026-05-06 16:17 -1.46184 117.10926 16913 ft 398 kts 87°
2026-05-06 16:17 -1.46062 117.13696 17344 ft 401 kts 87°
2026-05-06 16:18 -1.45933 117.16488 17794 ft 403 kts 87°
2026-05-06 16:18 -1.45801 117.19303 18203 ft 406 kts 87°
2026-05-06 16:18 -1.45670 117.22137 18568 ft 409 kts 87°
2026-05-06 16:18 -1.45539 117.24985 18947 ft 411 kts 87°
2026-05-06 16:19 -1.45411 117.27846 19319 ft 413 kts 87°
2026-05-06 16:19 -1.45289 117.30725 19686 ft 415 kts 88°
2026-05-06 16:19 -1.45169 117.33619 20049 ft 417 kts 88°
2026-05-06 16:19 -1.45050 117.36518 20405 ft 419 kts 88°
2026-05-06 16:20 -1.44931 117.39442 20757 ft 421 kts 88°
2026-05-06 16:20 -1.44811 117.42376 21104 ft 424 kts 88°
2026-05-06 16:20 -1.44690 117.45298 21444 ft 426 kts 87°
2026-05-06 16:20 -1.44278 117.48220 21768 ft 428 kts 75°
2026-05-06 16:21 -1.43188 117.50997 22089 ft 431 kts 62°
2026-05-06 16:21 -1.41460 117.53449 22412 ft 434 kts 48°
2026-05-06 16:21 -1.39176 117.55443 22716 ft 437 kts 34°
2026-05-06 16:21 -1.36470 117.56845 23031 ft 441 kts 22°
2026-05-06 16:22 -1.33586 117.57909 23324 ft 443 kts 21°
2026-05-06 16:22 -1.30675 117.58975 23584 ft 446 kts 21°
2026-05-06 16:22 -1.27763 117.60042 23835 ft 447 kts 21°
2026-05-06 16:22 -1.24878 117.61103 24084 ft 449 kts 21°
2026-05-06 16:23 -1.21938 117.62190 24330 ft 450 kts 21°
2026-05-06 16:23 -1.18993 117.63281 24579 ft 452 kts 21°
2026-05-06 16:23 -1.16038 117.64378 24823 ft 453 kts 21°
2026-05-06 16:23 -1.13071 117.65480 25064 ft 455 kts 21°
2026-05-06 16:24 -1.10098 117.66583 25305 ft 457 kts 21°
2026-05-06 16:24 -1.07131 117.67736 25548 ft 457 kts 26°
2026-05-06 16:24 -1.04406 117.69357 25772 ft 457 kts 38°
2026-05-06 16:24 -1.02089 117.71513 25995 ft 456 kts 51°
2026-05-06 16:25 -1.00274 117.74115 26222 ft 456 kts 63°
2026-05-06 16:25 -0.99045 117.77025 26435 ft 456 kts 74°
2026-05-06 16:25 -0.98437 117.80134 26647 ft 457 kts 84°
2026-05-06 16:25 -0.98099 117.83294 26866 ft 458 kts 84°
2026-05-06 16:26 -0.97756 117.86467 27070 ft 460 kts 84°
2026-05-06 16:26 -0.97409 117.89645 27286 ft 461 kts 84°
2026-05-06 16:26 -0.97062 117.92831 27497 ft 462 kts 84°
2026-05-06 16:26 -0.96717 117.95998 27706 ft 464 kts 84°
2026-05-06 16:27 -0.96366 117.99207 27915 ft 465 kts 84°
2026-05-06 16:27 -0.96013 118.02426 28114 ft 466 kts 84°
2026-05-06 16:27 -0.95661 118.05649 28324 ft 468 kts 84°
2026-05-06 16:27 -0.95306 118.08889 28544 ft 468 kts 84°
2026-05-06 16:28 -0.94955 118.12115 28852 ft 467 kts 84°
2026-05-06 16:28 -0.94608 118.15335 29159 ft 466 kts 84°
2026-05-06 16:28 -0.94257 118.18567 29457 ft 465 kts 84°
2026-05-06 16:28 -0.93906 118.21776 29764 ft 464 kts 84°
2026-05-06 16:29 -0.93556 118.24942 30042 ft 463 kts 84°
2026-05-06 16:29 -0.93202 118.28136 30293 ft 463 kts 84°
2026-05-06 16:29 -0.92843 118.31377 30551 ft 462 kts 84°
2026-05-06 16:29 -0.92496 118.34519 30802 ft 461 kts 84°
2026-05-06 16:30 -0.92151 118.37698 31055 ft 460 kts 85°
2026-05-06 16:30 -0.91921 118.39850 31222 ft 460 kts 85°
2026-05-06 16:30 -0.91468 118.44054 31559 ft 459 kts 85°
2026-05-06 16:30 -0.91120 118.47225 31819 ft 458 kts 85°
2026-05-06 16:31 -0.90916 118.50388 32078 ft 457 kts 92°
2026-05-06 16:31 -0.91191 118.53543 32338 ft 455 kts 99°
2026-05-06 16:31 -0.91671 118.56661 32593 ft 454 kts 99°
2026-05-06 16:31 -0.92148 118.59780 32859 ft 453 kts 99°
2026-05-06 16:32 -0.92620 118.62895 33139 ft 452 kts 99°
2026-05-06 16:32 -0.93089 118.66001 33422 ft 451 kts 99°
2026-05-06 16:32 -0.93557 118.69109 33689 ft 451 kts 99°
2026-05-06 16:32 -0.94028 118.72206 33941 ft 450 kts 99°
2026-05-06 16:33 -0.94497 118.75299 34178 ft 450 kts 99°
2026-05-06 16:33 -0.94963 118.78384 34412 ft 449 kts 99°
2026-05-06 16:33 -0.95429 118.81467 34639 ft 448 kts 99°
2026-05-06 16:34 -0.96364 118.87627 34860 ft 450 kts 99°
2026-05-06 16:34 -0.97300 118.93780 34864 ft 450 kts 99°
2026-05-06 16:35 -0.98230 118.99967 34860 ft 450 kts 99°
2026-05-06 16:35 -0.99164 119.06161 34853 ft 450 kts 99°
2026-05-06 16:36 -1.00104 119.12351 34856 ft 450 kts 99°
2026-05-06 16:36 -1.01048 119.18545 34857 ft 450 kts 99°
2026-05-06 16:37 -1.01982 119.24726 34859 ft 450 kts 99°
2026-05-06 16:37 -1.02912 119.30910 34858 ft 450 kts 99°
2026-05-06 16:38 -1.03837 119.37047 34863 ft 450 kts 99°
2026-05-06 16:38 -1.04772 119.43228 34857 ft 450 kts 99°
2026-05-06 16:39 -1.05709 119.49406 34867 ft 450 kts 99°
2026-05-06 16:39 -1.06645 119.55587 34874 ft 450 kts 99°
2026-05-06 16:40 -1.07577 119.61761 34878 ft 450 kts 99°
2026-05-06 16:40 -1.08511 119.67948 34871 ft 450 kts 99°
2026-05-06 16:41 -1.09442 119.74129 34884 ft 450 kts 99°
2026-05-06 16:41 -1.10377 119.80313 34882 ft 450 kts 99°
2026-05-06 16:42 -1.11307 119.86468 34893 ft 450 kts 99°
2026-05-06 16:42 -1.12239 119.92655 34883 ft 450 kts 99°
2026-05-06 16:43 -1.13181 119.98848 34896 ft 451 kts 99°
2026-05-06 16:43 -1.13959 120.04005 34896 ft 451 kts 99°
2026-05-06 16:44 -1.14892 120.10199 34892 ft 451 kts 99°
2026-05-06 16:44 -1.15984 120.17406 34879 ft 451 kts 99°
2026-05-06 16:45 -1.16917 120.23605 34879 ft 451 kts 99°
2026-05-06 16:45 -1.17695 120.28761 34875 ft 451 kts 99°
2026-05-06 16:46 -1.18628 120.34964 34879 ft 451 kts 99°
2026-05-06 16:46 -1.19564 120.41173 34880 ft 451 kts 99°
2026-05-06 16:47 -1.20501 120.47373 34881 ft 451 kts 99°
2026-05-06 16:47 -1.21437 120.53567 34866 ft 451 kts 99°
2026-05-06 16:48 -1.22370 120.59767 34871 ft 451 kts 99°
2026-05-06 16:48 -1.23305 120.65940 34859 ft 451 kts 99°
2026-05-06 16:49 -1.24244 120.72180 34856 ft 451 kts 99°
2026-05-06 16:49 -1.25173 120.78379 34852 ft 451 kts 99°
2026-05-06 16:50 -1.26103 120.84535 34848 ft 451 kts 99°
2026-05-06 16:50 -1.27040 120.90743 34848 ft 451 kts 99°
2026-05-06 16:51 -1.27972 120.96938 34843 ft 451 kts 99°
2026-05-06 16:51 -1.28909 121.03148 34835 ft 452 kts 99°
2026-05-06 16:52 -1.29845 121.09363 34841 ft 453 kts 99°
2026-05-06 16:52 -1.30786 121.15589 34864 ft 453 kts 99°
2026-05-06 16:53 -1.31714 121.21782 34881 ft 453 kts 99°
2026-05-06 16:53 -1.32651 121.28021 34882 ft 454 kts 99°
2026-05-06 16:54 -1.33598 121.34273 34890 ft 454 kts 99°
2026-05-06 16:54 -1.34536 121.40519 34891 ft 454 kts 99°
2026-05-06 16:55 -1.35467 121.46724 34892 ft 455 kts 99°
2026-05-06 16:55 -1.36403 121.52971 34910 ft 455 kts 99°
2026-05-06 16:56 -1.37345 121.59240 34902 ft 456 kts 99°
2026-05-06 16:56 -1.38289 121.65508 34906 ft 456 kts 99°
2026-05-06 16:57 -1.39236 121.71786 34910 ft 457 kts 99°
2026-05-06 16:57 -1.40182 121.78079 34905 ft 457 kts 99°
2026-05-06 16:58 -1.41121 121.84343 34900 ft 458 kts 99°
2026-05-06 16:58 -1.42066 121.90645 34894 ft 459 kts 99°
2026-05-06 16:59 -1.43013 121.96971 34890 ft 460 kts 99°
2026-05-06 16:59 -1.43967 122.03304 34893 ft 460 kts 99°
2026-05-06 17:00 -1.44925 122.09638 34886 ft 461 kts 99°
2026-05-06 17:00 -1.45876 122.15952 34881 ft 462 kts 100°
2026-05-06 17:01 -1.46825 122.22319 34871 ft 463 kts 99°
2026-05-06 17:01 -1.47779 122.28689 34874 ft 464 kts 100°
2026-05-06 17:02 -1.48733 122.35073 34872 ft 464 kts 100°
2026-05-06 17:02 -1.49694 122.41455 34866 ft 464 kts 99°
2026-05-06 17:03 -1.50652 122.47825 34867 ft 463 kts 99°
2026-05-06 17:03 -1.51602 122.54155 34863 ft 463 kts 100°
2026-05-06 17:04 -1.52553 122.60532 34866 ft 463 kts 100°
2026-05-06 17:04 -1.53513 122.66902 34863 ft 463 kts 99°
2026-05-06 17:05 -1.54469 122.73263 34864 ft 463 kts 100°
2026-05-06 17:05 -1.55425 122.79653 34864 ft 464 kts 100°
2026-05-06 17:06 -1.56372 122.85988 34863 ft 464 kts 99°
2026-05-06 17:06 -1.57327 122.92362 34865 ft 464 kts 98°
2026-05-06 17:07 -1.58275 122.98743 34863 ft 464 kts 99°
2026-05-06 17:07 -1.59230 123.05126 34855 ft 464 kts 99°
2026-05-06 17:08 -1.60192 123.11511 34866 ft 464 kts 99°
2026-05-06 17:08 -1.61152 123.17880 34884 ft 462 kts 99°
2026-05-06 17:09 -1.62097 123.24215 34879 ft 461 kts 99°
2026-05-06 17:09 -1.63037 123.30546 34881 ft 460 kts 99°
2026-05-06 17:10 -1.63979 123.36859 34874 ft 459 kts 99°
2026-05-06 17:10 -1.64929 123.43173 34874 ft 459 kts 99°
2026-05-06 17:11 -1.65868 123.49443 34858 ft 458 kts 99°
2026-05-06 17:11 -1.66807 123.55748 34859 ft 458 kts 99°
2026-05-06 17:12 -1.67749 123.62047 34849 ft 458 kts 99°
2026-05-06 17:12 -1.68689 123.68362 34854 ft 458 kts 99°
2026-05-06 17:13 -1.69632 123.74673 34846 ft 459 kts 99°
2026-05-06 17:13 -1.70574 123.81000 34839 ft 460 kts 99°
2026-05-06 17:14 -1.71510 123.87281 34839 ft 460 kts 99°
2026-05-06 17:14 -1.72460 123.93626 34838 ft 461 kts 99°
2026-05-06 17:15 -1.73406 123.99957 34834 ft 461 kts 99°
2026-05-06 17:15 -1.74353 124.06309 34834 ft 462 kts 99°
2026-05-06 17:16 -1.75302 124.12672 34837 ft 463 kts 99°
2026-05-06 17:16 -1.76246 124.19028 34839 ft 463 kts 99°
2026-05-06 17:17 -1.77198 124.25360 34837 ft 463 kts 99°
2026-05-06 17:17 -1.78151 124.31728 34836 ft 463 kts 99°
2026-05-06 17:18 -1.79095 124.38101 34840 ft 464 kts 99°
2026-05-06 17:18 -1.80038 124.44477 34847 ft 464 kts 99°
2026-05-06 17:19 -1.80989 124.50861 34852 ft 464 kts 99°
2026-05-06 17:19 -1.81938 124.57239 34857 ft 463 kts 99°
2026-05-06 17:20 -1.82889 124.63600 34860 ft 463 kts 99°
2026-05-06 17:20 -1.83843 124.69964 34864 ft 462 kts 99°
2026-05-06 17:21 -1.84785 124.76318 34860 ft 462 kts 99°
2026-05-06 17:21 -1.85718 124.82671 34870 ft 462 kts 99°
2026-05-06 17:22 -1.86650 124.88972 34863 ft 461 kts 99°
2026-05-06 17:22 -1.87601 124.95311 34864 ft 461 kts 99°
2026-05-06 17:23 -1.88551 125.01645 34848 ft 461 kts 99°
2026-05-06 17:23 -1.89492 125.07994 34839 ft 462 kts 98°
2026-05-06 17:24 -1.90429 125.14348 34832 ft 462 kts 99°
2026-05-06 17:24 -1.91373 125.20704 34834 ft 462 kts 99°
2026-05-06 17:25 -1.92320 125.27063 34838 ft 463 kts 99°
2026-05-06 17:25 -1.93263 125.33431 34840 ft 463 kts 99°
2026-05-06 17:26 -1.94205 125.39793 34842 ft 463 kts 99°
2026-05-06 17:26 -1.95154 125.46157 34837 ft 463 kts 99°
2026-05-06 17:27 -1.96102 125.52486 34836 ft 463 kts 99°
2026-05-06 17:27 -1.97040 125.58846 34844 ft 463 kts 98°
2026-05-06 17:28 -1.97976 125.65217 34837 ft 463 kts 99°
2026-05-06 17:28 -1.98923 125.71571 34838 ft 463 kts 99°
2026-05-06 17:29 -1.99870 125.77937 34848 ft 462 kts 99°
2026-05-06 17:29 -2.00812 125.84295 34849 ft 462 kts 99°
2026-05-06 17:30 -2.01751 125.90660 34853 ft 462 kts 99°
2026-05-06 17:30 -2.02537 125.95955 34848 ft 462 kts 99°
2026-05-06 17:31 -2.03634 126.03388 34848 ft 462 kts 99°
2026-05-06 17:31 -2.04419 126.08674 34847 ft 462 kts 99°
2026-05-06 17:32 -2.05359 126.15035 34837 ft 462 kts 99°
2026-05-06 17:32 -2.06297 126.21408 34839 ft 463 kts 99°
2026-05-06 17:33 -2.07235 126.27766 34849 ft 463 kts 99°
2026-05-06 17:33 -2.08174 126.34132 34841 ft 463 kts 99°
2026-05-06 17:34 -2.09115 126.40501 34842 ft 463 kts 99°
2026-05-06 17:34 -2.10055 126.46831 34840 ft 463 kts 99°
2026-05-06 17:35 -2.11003 126.53210 34834 ft 464 kts 99°
2026-05-06 17:35 -2.11939 126.59590 34842 ft 464 kts 99°
2026-05-06 17:36 -2.13348 126.69168 34842 ft 464 kts 99°
2026-05-06 17:36 -2.14289 126.75548 34837 ft 464 kts 99°
2026-05-06 17:37 -2.15232 126.81924 34837 ft 464 kts 100°
2026-05-06 17:37 -2.16168 126.88278 34838 ft 464 kts 99°
2026-05-06 17:38 -2.17112 126.94663 34837 ft 464 kts 99°
2026-05-06 17:38 -2.18057 127.01053 34842 ft 464 kts 99°
2026-05-06 17:39 -2.18993 127.07402 34842 ft 464 kts 99°
2026-05-06 17:39 -2.19932 127.13820 34842 ft 463 kts 98°
2026-05-06 17:40 -2.20862 127.20153 34844 ft 463 kts 99°
2026-05-06 17:40 -2.21355 127.23341 34672 ft 464 kts 103°
2026-05-06 17:40 -2.22272 127.26426 34443 ft 462 kts 113°
2026-05-06 17:41 -2.23740 127.29272 34220 ft 461 kts 123°
2026-05-06 17:41 -2.25692 127.31836 33530 ft 465 kts 133°
2026-05-06 17:41 -2.28130 127.33997 32438 ft 472 kts 144°
2026-05-06 17:41 -2.30917 127.35765 31449 ft 477 kts 148°
2026-05-06 17:42 -2.33748 127.37524 30368 ft 483 kts 147°
2026-05-06 17:42 -2.36622 127.39332 29165 ft 490 kts 147°
2026-05-06 17:42 -2.39496 127.41158 28067 ft 491 kts 146°
2026-05-06 17:42 -2.42376 127.42995 27121 ft 490 kts 146°
2026-05-06 17:43 -2.45244 127.44825 26254 ft 487 kts 146°
2026-05-06 17:43 -2.48068 127.46620 25361 ft 485 kts 147°
2026-05-06 17:43 -2.50911 127.48423 24521 ft 480 kts 146°
2026-05-06 17:43 -2.53721 127.50204 23610 ft 475 kts 146°
2026-05-06 17:44 -2.56496 127.51961 22673 ft 468 kts 147°
2026-05-06 17:44 -2.59214 127.53680 21985 ft 457 kts 146°
2026-05-06 17:44 -2.61878 127.55367 21291 ft 448 kts 147°
2026-05-06 17:44 -2.64487 127.57023 20629 ft 440 kts 147°
2026-05-06 17:45 -2.67047 127.58648 19999 ft 432 kts 147°
2026-05-06 17:45 -2.69566 127.60243 19401 ft 424 kts 147°
2026-05-06 17:45 -2.72033 127.61806 18820 ft 417 kts 147°
2026-05-06 17:45 -2.74459 127.63343 18273 ft 409 kts 147°
2026-05-06 17:46 -2.76854 127.64860 17697 ft 405 kts 147°
2026-05-06 17:46 -2.79219 127.66361 17185 ft 399 kts 147°
2026-05-06 17:46 -2.81540 127.67836 16674 ft 394 kts 147°
2026-05-06 17:46 -2.83842 127.69302 16166 ft 389 kts 147°
2026-05-06 17:47 -2.86116 127.70747 15669 ft 385 kts 147°
2026-05-06 17:47 -2.88344 127.72159 15135 ft 382 kts 148°
2026-05-06 17:47 -2.90617 127.73599 14612 ft 382 kts 148°
2026-05-06 17:47 -2.92835 127.75003 14074 ft 382 kts 148°
2026-05-06 17:48 -2.95079 127.76427 13500 ft 383 kts 148°
2026-05-06 17:48 -2.97332 127.77858 12888 ft 383 kts 148°
2026-05-06 17:48 -2.99580 127.79286 12307 ft 382 kts 148°
2026-05-06 17:48 -3.01800 127.80695 11859 ft 376 kts 148°
2026-05-06 17:49 -3.04009 127.82096 11250 ft 375 kts 148°
2026-05-06 17:49 -3.06207 127.83489 10855 ft 368 kts 148°
2026-05-06 17:49 -3.08319 127.84827 10734 ft 352 kts 148°
2026-05-06 17:49 -3.10351 127.86113 10628 ft 339 kts 148°
2026-05-06 17:50 -3.12306 127.87353 10503 ft 326 kts 148°
2026-05-06 17:50 -3.14188 127.88549 10390 ft 315 kts 148°
2026-05-06 17:50 -3.16005 127.89702 10246 ft 305 kts 148°
2026-05-06 17:50 -3.17777 127.90828 10046 ft 298 kts 148°
2026-05-06 17:51 -3.19521 127.91941 9965 ft 297 kts 147°
2026-05-06 17:51 -3.21215 127.93091 9719 ft 296 kts 146°
2026-05-06 17:51 -3.22885 127.94283 9451 ft 293 kts 144°
2026-05-06 17:51 -3.24534 127.95483 9196 ft 292 kts 144°
2026-05-06 17:52 -3.26178 127.96680 8954 ft 293 kts 144°
2026-05-06 17:52 -3.27824 127.97875 8707 ft 292 kts 144°
2026-05-06 17:52 -3.29466 127.99062 8457 ft 291 kts 144°
2026-05-06 17:52 -3.31101 128.00238 8219 ft 289 kts 144°
2026-05-06 17:53 -3.32724 128.01395 7969 ft 284 kts 144°
2026-05-06 17:53 -3.34353 128.02529 7467 ft 286 kts 145°
2026-05-06 17:53 -3.35983 128.03639 7189 ft 281 kts 145°
2026-05-06 17:53 -3.37594 128.04732 6832 ft 279 kts 145°
2026-05-06 17:54 -3.39205 128.05821 6320 ft 283 kts 145°
2026-05-06 17:54 -3.40867 128.06948 5618 ft 293 kts 145°
2026-05-06 17:54 -3.42522 128.08072 5323 ft 287 kts 145°
2026-05-06 17:54 -3.44130 128.09168 5180 ft 274 kts 145°
2026-05-06 17:55 -3.45663 128.10212 5062 ft 262 kts 145°
2026-05-06 17:55 -3.47145 128.11220 4879 ft 251 kts 144°
2026-05-06 17:55 -3.48575 128.12193 4644 ft 245 kts 144°
2026-05-06 17:55 -3.49964 128.13139 4413 ft 239 kts 144°
2026-05-06 17:56 -3.51322 128.14068 4176 ft 234 kts 144°
2026-05-06 17:56 -3.52655 128.14980 3954 ft 230 kts 144°
2026-05-06 17:56 -3.53957 128.15870 3737 ft 223 kts 144°
2026-05-06 17:56 -3.55204 128.16721 3518 ft 210 kts 144°
2026-05-06 17:57 -3.56384 128.17529 3331 ft 199 kts 144°
2026-05-06 17:57 -3.57495 128.18288 3165 ft 187 kts 144°
2026-05-06 17:57 -3.58530 128.18992 2985 ft 174 kts 144°
2026-05-06 17:57 -3.59501 128.19654 2803 ft 163 kts 142°
2026-05-06 17:58 -3.60418 128.20264 2660 ft 153 kts 146°
2026-05-06 17:58 -3.61380 128.20697 2628 ft 151 kts 157°
2026-05-06 17:58 -3.62388 128.20909 2559 ft 149 kts 169°
2026-05-06 17:58 -3.63424 128.20893 2494 ft 151 kts 181°
2026-05-06 17:59 -3.64459 128.20638 2431 ft 155 kts 195°
2026-05-06 17:59 -3.65428 128.20148 2372 ft 157 kts 208°
2026-05-06 17:59 -3.66243 128.19461 2315 ft 155 kts 221°
2026-05-06 17:59 -3.67000 128.18694 2121 ft 153 kts 220°
2026-05-06 18:00 -3.67745 128.17950 2024 ft 151 kts 219°
2026-05-06 18:00 -3.68458 128.17167 1978 ft 155 kts 232°
2026-05-06 18:00 -3.68848 128.16141 1635 ft 164 kts 259°
2026-05-06 18:00 -3.68742 128.15011 1317 ft 162 kts 289°
2026-05-06 18:01 -3.68386 128.13959 1083 ft 159 kts 287°
2026-05-06 18:01 -3.68111 128.12902 874 ft 153 kts 271°
2026-05-06 18:01 -3.68291 128.11890 674 ft 148 kts 245°
2026-05-06 18:01 -3.68897 128.11071 461 ft 144 kts 223°
2026-05-06 18:02 -3.69599 128.10378 234 ft 142 kts 221°
2026-05-06 18:02 -3.70300 128.09689 59 ft 141 kts 223°
2026-05-06 18:02 -3.70908 128.09084 35 ft 100 kts 225°
2026-05-06 18:02 -3.71279 128.08716 35 ft 50 kts 225°
2026-05-06 18:03 -3.71472 128.08525 36 ft 31 kts 225°
2026-05-06 18:03 -3.71613 128.08384 36 ft 27 kts 225°
2026-05-06 18:03 -3.71741 128.08256 36 ft 25 kts 225°
2026-05-06 18:03 -3.71784 128.08172 35 ft 10 kts 175°
2026-05-06 18:04 -3.71763 128.08236 36 ft 16 kts 44°
2026-05-06 18:04 -3.71672 128.08325 36 ft 21 kts 45°
2026-05-06 18:04 -3.71542 128.08456 36 ft 30 kts 44°
2026-05-06 18:04 -3.71374 128.08622 35 ft 35 kts 45°
2026-05-06 18:05 -3.71197 128.08799 34 ft 40 kts 45°
2026-05-06 18:05 -3.71029 128.08967 34 ft 31 kts 45°
2026-05-06 18:05 -3.70876 128.09118 35 ft 27 kts 45°
2026-05-06 18:05 -3.70778 128.09151 35 ft 12 kts 328°
2026-05-06 18:06 -3.70734 128.09104 35 ft 7 kts 314°
2026-05-06 18:06 -3.70703 128.09071 36 ft 6 kts 309°
2026-05-06 18:06 -3.70694 128.09023 36 ft 9 kts 267°
2026-05-06 18:06 -3.70695 128.08938 36 ft 12 kts 270°
2026-05-06 18:07 -3.70685 128.08860 36 ft 10 kts 315°
2026-05-06 18:07 -3.70636 128.08857 36 ft 3 kts
2026-05-06 18:07 -3.70628 128.08857 36 ft 0 kts